Time,TemperatureF,DewpointF,PressureIn,WindDirection,WindDirectionDegrees,WindSpeedMPH,WindSpeedGustMPH,Humidity,HourlyPrecipIn,Conditions,Clouds,dailyrainin,SoftwareType,DateUTC
2013-05-09 00:07:00,57.6,57.0,29.93,NNE,22,2.7,-999.0,98,-99.99,,,0.01,Acu-Link.com,2013-05-09 05:07:00,
2013-05-09 00:22:00,57.4,56.8,29.93,NE,45,4.2,-999.0,98,-99.99,,,0.02,Acu-Link.com,2013-05-09 05:22:00,
2013-05-09 00:37:00,57.4,56.8,29.92,NNE,22,5.3,-999.0,98,-99.99,,,0.03,Acu-Link.com,2013-05-09 05:37:00,
2013-05-09 00:53:00,57.4,56.8,29.92,NNE,22,4.7,-999.0,98,-99.99,,,0.05,Acu-Link.com,2013-05-09 05:53:00,
2013-05-09 01:08:00,57.2,56.6,29.92,NNE,22,5.8,-999.0,98,-99.99,,,0.05,Acu-Link.com,2013-05-09 06:08:00,
2013-05-09 01:23:00,57.2,56.4,29.92,NNE,22,6.3,-999.0,97,-99.99,,,0.05,Acu-Link.com,2013-05-09 06:23:00,
2013-05-09 01:38:00,57.0,56.2,29.91,NNE,22,5.3,-999.0,97,-99.99,,,0.05,Acu-Link.com,2013-05-09 06:38:00,
2013-05-09 01:53:00,57.0,55.9,29.91,NNE,22,5.8,-999.0,96,-99.99,,,0.05,Acu-Link.com,2013-05-09 06:53:00,
2013-05-09 02:09:00,56.7,55.9,29.91,North,0,4.7,-999.0,97,-99.99,,,0.05,Acu-Link.com,2013-05-09 07:09:00,
2013-05-09 02:24:00,56.7,55.6,29.91,NNE,22,5.8,-999.0,96,-99.99,,,0.05,Acu-Link.com,2013-05-09 07:24:00,
2013-05-09 02:39:00,56.8,55.4,29.90,North,0,5.8,-999.0,95,-99.99,,,0.05,Acu-Link.com,2013-05-09 07:39:00,
2013-05-09 02:54:00,56.7,55.3,29.90,NE,45,9.9,-999.0,95,-99.99,,,0.05,Acu-Link.com,2013-05-09 07:54:00,
2013-05-09 03:10:00,56.8,55.1,29.90,NE,45,8.9,-999.0,94,-99.99,,,0.05,Acu-Link.com,2013-05-09 08:10:00,
2013-05-09 03:25:00,56.8,54.8,29.90,NNE,22,10.4,-999.0,93,-99.99,,,0.05,Acu-Link.com,2013-05-09 08:25:00,
2013-05-09 03:40:00,57.0,54.7,29.90,NNE,22,7.8,-999.0,92,-99.99,,,0.05,Acu-Link.com,2013-05-09 08:40:00,
2013-05-09 03:55:00,57.0,54.4,29.90,NNW,337,6.3,-999.0,91,-99.99,,,0.05,Acu-Link.com,2013-05-09 08:55:00,
2013-05-09 04:10:00,56.3,54.0,29.90,NNE,22,7.3,-999.0,92,-99.99,,,0.05,Acu-Link.com,2013-05-09 09:10:00,
2013-05-09 04:26:00,56.3,54.3,29.90,North,0,6.8,-999.0,93,-99.99,,,0.05,Acu-Link.com,2013-05-09 09:26:00,
2013-05-09 04:41:00,56.1,54.1,29.90,NNE,22,6.8,-999.0,93,-99.99,,,0.05,Acu-Link.com,2013-05-09 09:41:00,
2013-05-09 04:56:00,56.3,54.3,29.90,North,0,6.3,-999.0,93,-99.99,,,0.05,Acu-Link.com,2013-05-09 09:56:00,
2013-05-09 05:11:00,56.5,54.2,29.90,NNE,22,6.3,-999.0,92,-99.99,,,0.05,Acu-Link.com,2013-05-09 10:11:00,
2013-05-09 05:26:00,56.7,54.4,29.90,NNW,337,5.3,-999.0,92,-99.99,,,0.05,Acu-Link.com,2013-05-09 10:26:00,
2013-05-09 05:41:00,56.5,54.2,29.91,NNE,22,4.2,-999.0,92,-99.99,,,0.05,Acu-Link.com,2013-05-09 10:41:00,
2013-05-09 05:56:00,56.7,54.4,29.91,NNE,22,6.8,-999.0,92,-99.99,,,0.05,Acu-Link.com,2013-05-09 10:56:00,
2013-05-09 06:12:00,56.5,54.2,29.92,NNE,22,6.8,-999.0,92,-99.99,,,0.05,Acu-Link.com,2013-05-09 11:12:00,
2013-05-09 06:27:00,56.5,54.2,29.91,NNE,22,6.8,-999.0,92,-99.99,,,0.05,Acu-Link.com,2013-05-09 11:27:00,
2013-05-09 06:42:00,57.0,54.7,29.92,NNE,22,7.8,-999.0,92,-99.99,,,0.05,Acu-Link.com,2013-05-09 11:42:00,
2013-05-09 06:57:00,56.5,54.5,29.93,NE,45,5.8,-999.0,93,-99.99,,,0.05,Acu-Link.com,2013-05-09 11:57:00,
2013-05-09 07:12:00,56.5,54.5,29.93,NE,45,8.3,-999.0,93,-99.99,,,0.05,Acu-Link.com,2013-05-09 12:12:00,
2013-05-09 07:27:00,56.7,54.7,29.93,NNE,22,8.9,-999.0,93,-99.99,,,0.05,Acu-Link.com,2013-05-09 12:27:00,
2013-05-09 07:42:00,57.0,54.7,29.93,NNE,22,9.4,-999.0,92,-99.99,,,0.06,Acu-Link.com,2013-05-09 12:42:00,
2013-05-09 07:57:00,57.0,54.7,29.93,NE,45,9.4,-999.0,92,-99.99,,,0.06,Acu-Link.com,2013-05-09 12:57:00,
2013-05-09 08:12:00,57.0,54.7,29.94,NNE,22,8.9,-999.0,92,-99.99,,,0.06,Acu-Link.com,2013-05-09 13:12:00,
2013-05-09 08:27:00,57.0,54.7,29.94,NNE,22,8.3,-999.0,92,-99.99,,,0.06,Acu-Link.com,2013-05-09 13:27:00,
2013-05-09 08:42:00,57.0,54.7,29.94,NE,45,7.3,-999.0,92,-99.99,,,0.06,Acu-Link.com,2013-05-09 13:42:00,
2013-05-09 08:57:00,57.4,54.8,29.94,NE,45,8.9,-999.0,91,-99.99,,,0.06,Acu-Link.com,2013-05-09 13:57:00,
2013-05-09 09:12:00,57.6,54.7,29.94,NE,45,7.3,-999.0,90,-99.99,,,0.06,Acu-Link.com,2013-05-09 14:12:00,
2013-05-09 09:27:00,57.6,55.0,29.95,NNE,22,9.4,-999.0,91,-99.99,,,0.06,Acu-Link.com,2013-05-09 14:27:00,
2013-05-09 09:42:00,57.7,55.1,29.94,ENE,67,11.4,-999.0,91,-99.99,,,0.06,Acu-Link.com,2013-05-09 14:42:00,
2013-05-09 09:57:00,58.1,55.5,29.94,NE,45,9.4,-999.0,91,-99.99,,,0.06,Acu-Link.com,2013-05-09 14:57:00,
2013-05-09 10:12:00,58.1,55.5,29.95,NNE,22,9.4,-999.0,91,-99.99,,,0.06,Acu-Link.com,2013-05-09 15:12:00,
2013-05-09 10:27:00,58.6,55.4,29.94,North,0,13.0,-999.0,89,-99.99,,,0.06,Acu-Link.com,2013-05-09 15:27:00,
2013-05-09 10:42:00,59.0,55.8,29.95,NNE,22,9.4,-999.0,89,-99.99,,,0.06,Acu-Link.com,2013-05-09 15:42:00,
2013-05-09 10:57:00,58.5,55.0,29.95,NNE,22,15.0,-999.0,88,-99.99,,,0.06,Acu-Link.com,2013-05-09 15:57:00,
2013-05-09 11:12:00,57.6,54.1,29.95,NE,45,14.5,-999.0,88,-99.99,,,0.06,Acu-Link.com,2013-05-09 16:12:00,
2013-05-09 11:28:00,56.3,53.1,29.96,NE,45,13.0,-999.0,89,-99.99,,,0.06,Acu-Link.com,2013-05-09 16:28:00,
2013-05-09 11:43:00,55.6,53.0,29.96,NNE,22,16.1,-999.0,91,-99.99,,,0.06,Acu-Link.com,2013-05-09 16:43:00,
2013-05-09 11:58:00,54.1,51.5,29.97,North,0,14.0,-999.0,91,-99.99,,,0.06,Acu-Link.com,2013-05-09 16:58:00,
2013-05-09 12:13:00,53.8,51.2,29.96,NE,45,14.5,-999.0,91,-99.99,,,0.06,Acu-Link.com,2013-05-09 17:13:00,
2013-05-09 12:28:00,53.4,51.1,29.97,NNE,22,11.4,-999.0,92,-99.99,,,0.06,Acu-Link.com,2013-05-09 17:28:00,
2013-05-09 12:43:00,52.2,50.2,29.97,NNE,22,13.0,-999.0,93,-99.99,,,0.06,Acu-Link.com,2013-05-09 17:43:00,
2013-05-09 12:58:00,52.0,50.0,29.98,NNE,22,15.0,-999.0,93,-99.99,,,0.06,Acu-Link.com,2013-05-09 17:58:00,
2013-05-09 13:13:00,50.4,48.5,29.97,NNE,22,17.6,-999.0,93,-99.99,,,0.06,Acu-Link.com,2013-05-09 18:13:00,
2013-05-09 13:28:00,49.8,47.9,29.98,NNE,22,20.2,-999.0,93,-99.99,,,0.06,Acu-Link.com,2013-05-09 18:28:00,
2013-05-09 13:43:00,49.8,47.9,29.98,NNE,22,15.5,-999.0,93,-99.99,,,0.06,Acu-Link.com,2013-05-09 18:43:00,
2013-05-09 13:59:00,49.6,47.7,29.98,NE,45,14.5,-999.0,93,-99.99,,,0.06,Acu-Link.com,2013-05-09 18:59:00,
2013-05-09 14:14:00,50.0,47.8,29.98,NNE,22,11.4,-999.0,92,-99.99,,,0.06,Acu-Link.com,2013-05-09 19:14:00,
2013-05-09 14:29:00,50.7,48.5,29.98,NNE,22,13.5,-999.0,92,-99.99,,,0.06,Acu-Link.com,2013-05-09 19:29:00,
2013-05-09 14:44:00,51.1,48.3,29.98,NE,45,13.0,-999.0,90,-99.99,,,0.06,Acu-Link.com,2013-05-09 19:44:00,
2013-05-09 14:59:00,51.3,48.5,29.98,NNE,22,18.1,-999.0,90,-99.99,,,0.06,Acu-Link.com,2013-05-09 19:59:00,
2013-05-09 15:14:00,51.3,48.5,29.98,NNE,22,11.4,-999.0,90,-99.99,,,0.06,Acu-Link.com,2013-05-09 20:14:00,
2013-05-09 15:29:00,52.0,48.6,29.97,NNE,22,16.6,-999.0,88,-99.99,,,0.06,Acu-Link.com,2013-05-09 20:29:00,
2013-05-09 15:44:00,52.5,48.4,29.97,NE,45,17.6,-999.0,86,-99.99,,,0.06,Acu-Link.com,2013-05-09 20:44:00,
2013-05-09 15:59:00,52.3,48.2,29.97,NE,45,21.2,-999.0,86,-99.99,,,0.06,Acu-Link.com,2013-05-09 20:59:00,
2013-05-09 16:14:00,51.8,47.7,29.97,NE,45,16.6,-999.0,86,-99.99,,,0.06,Acu-Link.com,2013-05-09 21:14:00,
2013-05-09 16:29:00,50.0,46.0,29.98,NNE,22,18.1,-999.0,86,-99.99,,,0.06,Acu-Link.com,2013-05-09 21:29:00,
2013-05-09 16:44:00,49.6,45.9,29.98,NE,45,19.1,-999.0,87,-99.99,,,0.06,Acu-Link.com,2013-05-09 21:44:00,
2013-05-09 16:59:00,49.1,45.1,29.98,NNE,22,17.1,-999.0,86,-99.99,,,0.06,Acu-Link.com,2013-05-09 21:59:00,
2013-05-09 17:15:00,48.2,44.5,29.98,NNE,22,20.7,-999.0,87,-99.99,,,0.06,Acu-Link.com,2013-05-09 22:15:00,
2013-05-09 17:30:00,48.6,44.6,29.99,NE,45,18.1,-999.0,86,-99.99,,,0.06,Acu-Link.com,2013-05-09 22:30:00,
2013-05-09 17:45:00,48.7,44.1,29.99,NNE,22,18.6,-999.0,84,-99.99,,,0.06,Acu-Link.com,2013-05-09 22:45:00,
2013-05-09 18:00:00,48.6,44.0,29.99,NNE,22,21.7,-999.0,84,-99.99,,,0.06,Acu-Link.com,2013-05-09 23:00:00,
2013-05-09 18:15:00,48.7,43.8,29.99,NE,45,12.5,-999.0,83,-99.99,,,0.06,Acu-Link.com,2013-05-09 23:15:00,
2013-05-09 18:30:00,46.2,41.3,29.99,NE,45,18.6,-999.0,83,-99.99,,,0.06,Acu-Link.com,2013-05-09 23:30:00,
2013-05-09 18:45:00,48.9,43.7,30.00,NNE,22,13.5,-999.0,82,-99.99,,,0.06,Acu-Link.com,2013-05-09 23:45:00,
2013-05-09 19:00:00,48.9,43.7,30.00,NNE,22,16.1,-999.0,82,-99.99,,,0.06,Acu-Link.com,2013-05-10 00:00:00,
2013-05-09 19:15:00,48.7,43.1,30.00,NE,45,13.5,-999.0,81,-99.99,,,0.06,Acu-Link.com,2013-05-10 00:15:00,
2013-05-09 19:30:00,48.2,42.0,30.00,NE,45,16.1,-999.0,79,-99.99,,,0.06,Acu-Link.com,2013-05-10 00:30:00,
2013-05-09 19:45:00,48.2,42.0,30.01,NE,45,17.6,-999.0,79,-99.99,,,0.06,Acu-Link.com,2013-05-10 00:45:00,
2013-05-09 20:00:00,48.0,42.1,30.01,NNE,22,16.6,-999.0,80,-99.99,,,0.06,Acu-Link.com,2013-05-10 01:00:00,
2013-05-09 20:15:00,47.8,40.9,30.02,NE,45,13.0,-999.0,77,-99.99,,,0.06,Acu-Link.com,2013-05-10 01:15:00,
2013-05-09 20:31:00,47.5,40.0,30.02,NE,45,16.1,-999.0,75,-99.99,,,0.06,Acu-Link.com,2013-05-10 01:31:00,
2013-05-09 20:46:00,47.3,38.4,30.02,NE,45,13.5,-999.0,71,-99.99,,,0.06,Acu-Link.com,2013-05-10 01:46:00,
2013-05-09 21:01:00,46.9,37.6,30.02,NNE,22,12.5,-999.0,70,-99.99,,,0.06,Acu-Link.com,2013-05-10 02:01:00,
2013-05-09 21:16:00,46.6,36.2,30.03,ENE,67,14.5,-999.0,67,-99.99,,,0.06,Acu-Link.com,2013-05-10 02:16:00,
2013-05-09 21:31:00,46.8,35.7,30.03,NE,45,10.9,-999.0,65,-99.99,,,0.06,Acu-Link.com,2013-05-10 02:31:00,
2013-05-09 21:46:00,46.6,35.9,30.03,NE,45,16.6,-999.0,66,-99.99,,,0.06,Acu-Link.com,2013-05-10 02:46:00,
2013-05-09 22:01:00,46.2,35.9,30.04,NE,45,8.3,-999.0,67,-99.99,,,0.06,Acu-Link.com,2013-05-10 03:01:00,
2013-05-09 22:16:00,45.9,35.9,30.04,NNE,22,10.4,-999.0,68,-99.99,,,0.06,Acu-Link.com,2013-05-10 03:16:00,
2013-05-09 22:31:00,45.5,35.6,30.03,NE,45,7.8,-999.0,68,-99.99,,,0.06,Acu-Link.com,2013-05-10 03:31:00,
2013-05-09 22:46:00,45.1,34.0,30.03,NNE,22,12.5,-999.0,65,-99.99,,,0.06,Acu-Link.com,2013-05-10 03:46:00,
2013-05-09 23:01:00,45.1,34.0,30.03,NE,45,10.9,-999.0,65,-99.99,,,0.06,Acu-Link.com,2013-05-10 04:01:00,
2013-05-09 23:16:00,45.3,32.7,30.03,NE,45,16.1,-999.0,61,-99.99,,,0.06,Acu-Link.com,2013-05-10 04:16:00,
2013-05-09 23:32:00,45.1,32.9,30.03,NE,45,11.9,-999.0,62,-99.99,,,0.06,Acu-Link.com,2013-05-10 04:32:00,
2013-05-09 23:47:00,45.1,32.9,30.03,NE,45,15.5,-999.0,62,-99.99,,,0.06,Acu-Link.com,2013-05-10 04:47:00,